Location: Atlantic Beach
(40.5890°N, 73.7290°W)
Time: 06:28:35
(UTC+00:00)

N. Korean satellite - Pass Details

Date: 30 January 2021
Orbit: 451 x 502 km, 97.2° (Epoch: 06 March)

Event Time Altitude Azimuth Distance (km) Brightness Sun altitude
Rises 10:21:14 0° 11° (NNE) 2,487 10.2 -20.1°
Reaches altitude 10° 10:23:17 10° 12° (NNE) 1,602 9.2 -19.7°
Maximum altitude 10:26:43 88° 106° (ESE) 459 6.3 -19.1°
Drops below altitude 10° 10:30:06 10° 192° (SSW) 1,578 9.1 -18.4°
Sets 10:32:07 0° 193° (SSW) 2,445 10.1 -18.0°
